Flag for Oman Weather past 2 weeks in Salalah, Oman

Now
75 °F

Drizzle. Overcast.


Feels Like: 74 °F
Forecast: 79 / 87 °F
Wind: 3 mph from East

Location: Salalah Airport

Current Time: Jul 31, 2014 at 1:38:18 AM

Latest Report: Jul 31, 2014 at 12:50 AM


Visibility: 1 mi

Pressure: 29.65 "Hg

Humidity: 94%

Dew point: 73 °F

Location of SalalahLocation

Historic Weather in Salalah — Graph

°F

Salalah temperature yesterday

Maximum temperature yesterday: 77 °F (at 9:50 AM)
Minimum temperature yesterday: 75 °F (at 12:50 AM)
Average temperature yesterday: 76 °F

Past Weeks' High & Low Weather Summary

 TemperatureHumidityPressure
High86 °F (Jul 16, 12:50 PM)94% (Jul 15, 11:50 PM)29.77 "Hg (Jul 15, 11:50 PM)
Low75 °F (Jul 20, 1:50 AM)66% (Jul 16, 12:50 PM)29.50 "Hg (Jul 17, 3:50 PM)
Average77 °F89%29.63 "Hg
* Reported Jul 15 11:50 PM — Jul 30 11:50 PM, Salalah, Weather by CustomWeather, © 2014

Note: Actual official high and low records may vary slightly from our data, if they occured in-between our weather recording intervals... More about our weather records

Advertising

Salalah weather history for previous 24 hours

 ConditionsComfort  
Time TempWeatherWind HumidityBarometerVisibility
11:50 PM
Jul 30
75 °FDrizzle. Overcast.5 mph94%29.68 "Hg1 mi
10:50 PM75 °FMild.6 mph94%29.68 "Hg1 mi
9:50 PM77 °FWarm.3 mph94%29.68 "Hg1 mi
7:50 PM77 °FDrizzle. Overcast.5 mph94%29.62 "Hg1 mi
6:50 PM77 °FDrizzle. Cloudy.6 mph89%29.62 "Hg1 mi
5:50 PM77 °FDrizzle. Cloudy.5 mph94%29.62 "Hg1 mi
4:50 PM77 °FWarm.6 mph94%29.59 "Hg2 mi
3:50 PM77 °FDrizzle. Cloudy.6 mph94%29.62 "Hg1 mi
2:50 PM77 °FWarm.5 mph94%29.62 "Hg2 mi
1:50 PM77 °FWarm.5 mph94%29.62 "Hg2 mi
12:50 PM77 °FDrizzle. Cloudy.6 mph94%29.65 "Hg1 mi
11:50 AM77 °FDrizzle. Cloudy.6 mph94%29.65 "Hg1 mi
10:50 AM77 °FWarm.5 mph94%29.68 "Hg2 mi
9:50 AM77 °FWarm.3 mph94%29.68 "Hg2 mi
8:50 AM75 °FDrizzle. Cloudy.2 mph94%29.68 "Hg1 mi
7:50 AM75 °FDrizzle. Cloudy.2 mph94%29.68 "Hg1 mi
5:50 AM75 °FDrizzle. Overcast.2 mph94%29.65 "Hg1 mi
4:50 AM75 °FDrizzle. Overcast.3 mph94%29.62 "Hg1 mi
3:50 AM75 °FDrizzle. Overcast.3 mph94%29.62 "Hg1 mi
2:50 AM75 °FDrizzle. Overcast.3 mph94%29.62 "Hg1 mi
1:50 AM75 °FDrizzle. Overcast.5 mph94%29.62 "Hg1 mi
Weather by CustomWeather, © 2014

See weather overviewHow to use our weather pages